Location: ?
(35.6144°N, 139.6873°E)
Time: 19:13:27
(UTC+00:00)

NOSS 3-1 (C) - Pass Details

Date: 23 May 2024
Orbit: 652 x 1553 km, 63.4° (Epoch: 15 May)

Event Time Altitude Azimuth Distance (km) Brightness Sun altitude
Rises 10:24:36 0° 327° (NNW) 4,007 8.1 -7.7°
Reaches altitude 10° 10:27:07 10° 327° (NNW) 3,160 7.4 -8.2°
Maximum altitude 10:35:00 86° 241° (WSW) 1,396 4.3 -9.5°
Drops below altitude 10° 10:44:16 10° 153° (SSE) 3,680 6.0 -11.1°
Enters shadow 10:44:48 - 153° (SSE) 3,850 6.1 -11.1°
